This is the latest recevied weather packets stored in our database for station/object KE5YIM-13. If no packets are shown the sender has not sent any weather packets the latest 10 day(s).
| Time | Temp. | Humidity | Pressure | Rain* | Wind** | Luminosity | Snow |
|---|---|---|---|---|---|---|---|
| 1777994003 | 20.56° C | 67% | 1012.5 hPa | 0 mm | - | 729 W/m² | - |
| 1777993700 | 20.56° C | 64% | 1012.4 hPa | 0 mm | - | 723 W/m² | - |
| 1777993397 | 20° C | 68% | 1012.5 hPa | 0 mm | - | 717 W/m² | - |
| 1777993091 | 20.56° C | 65% | 1012.3 hPa | 0 mm | - | 708 W/m² | - |
| 1777992790 | 20.56° C | 65% | 1012.5 hPa | 0 mm | - | 697 W/m² | - |
| 1777992487 | 20.56° C | 66% | 1012.3 hPa | 0 mm | - | 687 W/m² | - |
| 1777992186 | 20° C | 67% | 1012.4 hPa | 0 mm | - | 676 W/m² | - |
| 1777991882 | 19.44° C | 67% | 1012.4 hPa | 0 mm | - | 666 W/m² | - |
| 1777991580 | 19.44° C | 67% | 1012.5 hPa | 0 mm | - | 661 W/m² | - |
| 1777991276 | 19.44° C | 68% | 1012.4 hPa | 0 mm | - | 646 W/m² | - |
| 1777990973 | 18.89° C | 69% | 1012.3 hPa | 0 mm | - | 640 W/m² | - |
| 1777990671 | 18.89° C | 69% | 1012.3 hPa | 0 mm | - | 624 W/m² | - |
| 1777990368 | 19.44° C | 70% | 1012.2 hPa | 0 mm | - | 611 W/m² | - |
| 1777990064 | 18.89° C | 69% | 1012.2 hPa | 0 mm | - | 599 W/m² | - |
| 1777989761 | 18.33° C | 70% | 1012.2 hPa | 0 mm | - | 584 W/m² | - |
| 1777989458 | 18.33° C | 71% | 1012.2 hPa | 0 mm | - | 559 W/m² | - |
| 1777989154 | 17.78° C | 73% | 1012.2 hPa | 0 mm | - | 555 W/m² | - |
| 1777988850 | 17.78° C | 74% | 1012.5 hPa | 0 mm | - | 542 W/m² | - |
| 1777988548 | 17.22° C | 74% | 1012.4 hPa | 0 mm | - | 525 W/m² | - |
| 1777988244 | 17.22° C | 75% | 1012.3 hPa | 0 mm | - | 521 W/m² | - |
| 1777987941 | 16.67° C | 75% | 1012.2 hPa | 0 mm | - | 498 W/m² | - |
| 1777987636 | 16.11° C | 76% | 1012.3 hPa | 0 mm | - | 468 W/m² | - |
| 1777987334 | 16.11° C | 77% | 1012.2 hPa | 0 mm | - | 475 W/m² | - |
| 1777987031 | 16.11° C | 76% | 1012.3 hPa | 0 mm | - | 455 W/m² | - |
| 1777986729 | 16.11° C | 78% | 1012.1 hPa | 0 mm | - | 239 W/m² | - |
* Rain latest hour (hover to see other rain measurements)
** Current wind speed in m/s (hover to see current wind gust speed)